| time (UTC) | temp F | wind direction | speed MPH | gust MPH | rain 1hr in | rain 24hr in | rain mn in | humidity % | barometer mb |
| 20260904144000 | 82 | 211 | 0.0 | 0.0 | 0.00 | 0.00 | 0.00 | 87 | 1015.1 |
| 20260904143531 | 82 | 209 | 0.0 | 0.0 | 0.00 | 0.00 | 0.00 | 87 | 1015.1 |
| 20260904142459 | 81 | 90 | 0.0 | 0.0 | 0.00 | 0.00 | 0.00 | 88 | 1015.0 |
| 20260904142033 | 81 | 252 | 0.0 | 0.0 | 0.00 | 0.00 | 0.00 | 89 | 1015.0 |
| 20260904141005 | 80 | 251 | 0.0 | 0.0 | 0.00 | 0.00 | 0.00 | 90 | 1015.0 |
| 20260904140002 | 80 | 251 | 0.0 | 0.0 | 0.00 | 0.00 | 0.00 | 90 | 1014.9 |
| 20260904134455 | 79 | 251 | 0.0 | 0.0 | 0.00 | 0.00 | 0.00 | 92 | 1014.8 |
| 20260904133512 | 79 | 251 | 0.0 | 0.0 | 0.00 | 0.00 | 0.00 | 93 | 1014.8 |
| 20260904132944 | 78 | 252 | 0.0 | 0.0 | 0.00 | 0.00 | 0.00 | 93 | 1014.8 |
| 20260904132528 | 78 | 223 | 0.0 | 0.0 | 0.00 | 0.00 | 0.00 | 94 | 1014.8 |
| 20260904132009 | 77 | 223 | 0.0 | 0.0 | 0.00 | 0.00 | 0.00 | 94 | 1014.7 |
| 20260904131429 | 77 | 222 | 0.0 | 0.0 | 0.00 | 0.00 | 0.00 | 95 | 1014.7 |
| 20260904131004 | 77 | 220 | 0.0 | 0.0 | 0.00 | 0.00 | 0.00 | 95 | 1014.6 |
| 20260904130004 | 76 | 221 | 0.0 | 0.0 | 0.00 | 0.00 | 0.00 | 95 | 1014.5 |
| 20260904125001 | 76 | 136 | 0.0 | 0.0 | 0.00 | 0.00 | 0.00 | 95 | 1014.4 |
| 20260904123946 | 75 | 136 | 0.0 | 0.0 | 0.00 | 0.00 | 0.00 | 95 | 1014.3 |
| 20260904122949 | 75 | 136 | 0.0 | 0.0 | 0.00 | 0.00 | 0.00 | 95 | 1014.3 |
| 20260904122520 | 75 | 136 | 0.0 | 0.0 | 0.00 | 0.00 | 0.00 | 95 | 1014.2 |
| 20260904121939 | 75 | 136 | 0.0 | 0.0 | 0.00 | 0.00 | 0.00 | 95 | 1014.2 |
| 20260904120944 | 75 | 136 | 0.0 | 0.0 | 0.00 | 0.00 | 0.00 | 95 | 1014.2 |
| 20260904120022 | 75 | 136 | 0.0 | 0.0 | 0.00 | 0.00 | 0.00 | 94 | 1014.0 |
| 20260904115450 | 75 | 136 | 0.0 | 0.0 | 0.00 | 0.00 | 0.00 | 94 | 1013.9 |
| 20260904114457 | 75 | 136 | 0.0 | 0.0 | 0.00 | 0.00 | 0.00 | 94 | 1013.9 |
| 20260904113452 | 75 | 136 | 0.0 | 0.0 | 0.00 | 0.00 | 0.00 | 94 | 1013.9 |
| 20260904112454 | 75 | 136 | 0.0 | 0.0 | 0.00 | 0.00 | 0.00 | 94 | 1013.9 |
| 20260904111953 | 75 | 136 | 0.0 | 0.0 | 0.00 | 0.00 | 0.00 | 94 | 1014.0 |
| 20260904110941 | 75 | 136 | 0.0 | 0.0 | 0.00 | 0.00 | 0.00 | 94 | 1013.9 |
| 20260904110512 | 75 | 136 | 0.0 | 0.0 | 0.00 | 0.00 | 0.00 | 93 | 1013.8 |
| 20260904105454 | 75 | 136 | 0.0 | 0.0 | 0.00 | 0.00 | 0.00 | 93 | 1013.9 |
| 20260904104447 | 76 | 136 | 0.0 | 0.0 | 0.00 | 0.00 | 0.00 | 93 | 1013.9 |
| 20260904104016 | 76 | 136 | 0.0 | 0.0 | 0.00 | 0.00 | 0.00 | 93 | 1013.9 |
| 20260904102955 | 76 | 136 | 0.0 | 0.0 | 0.00 | 0.00 | 0.00 | 93 | 1013.8 |
| 20260904102511 | 76 | 136 | 0.0 | 0.0 | 0.00 | 0.00 | 0.00 | 93 | 1013.8 |
| 20260904101959 | 76 | 136 | 0.0 | 0.0 | 0.00 | 0.00 | 0.00 | 93 | 1013.8 |
| 20260904100943 | 76 | 136 | 0.0 | 0.0 | 0.00 | 0.09 | 0.00 | 93 | 1013.6 |
| 20260904095949 | 76 | 136 | 0.0 | 0.0 | 0.00 | 0.09 | 0.00 | 93 | 1013.5 |
| 20260904094949 | 76 | 136 | 0.0 | 0.0 | 0.00 | 0.09 | 0.00 | 93 | 1013.4 |
| 20260904093948 | 76 | 136 | 0.0 | 0.0 | 0.00 | 0.09 | 0.00 | 93 | 1013.2 |
| 20260904092947 | 76 | 136 | 0.0 | 0.0 | 0.00 | 0.09 | 0.00 | 93 | 1013.2 |
| 20260904091954 | 76 | 136 | 0.0 | 0.0 | 0.00 | 0.09 | 0.00 | 93 | 1013.1 |
| 20260904091001 | 76 | 136 | 0.0 | 0.0 | 0.00 | 0.71 | 0.00 | 93 | 1013.2 |
| 20260904090009 | 76 | 136 | 0.0 | 0.0 | 0.00 | 0.71 | 0.00 | 93 | 1013.2 |
| 20260904085532 | 76 | 136 | 0.0 | 0.0 | 0.00 | 0.71 | 0.00 | 92 | 1013.2 |
| 20260904085048 | 76 | 136 | 0.0 | 0.0 | 0.00 | 0.71 | 0.00 | 92 | 1013.2 |
| 20260904084445 | 76 | 136 | 0.0 | 0.0 | 0.00 | 0.71 | 0.00 | 92 | 1013.2 |
| 20260904083506 | 76 | 136 | 0.0 | 0.0 | 0.00 | 0.71 | 0.00 | 92 | 1013.2 |
| 20260904082449 | 76 | 136 | 0.0 | 0.0 | 0.00 | 0.71 | 0.00 | 92 | 1013.1 |
| 20260904081453 | 76 | 136 | 0.0 | 0.0 | 0.00 | 0.81 | 0.00 | 92 | 1013.1 |
| 20260904080448 | 76 | 136 | 0.0 | 0.0 | 0.00 | 0.81 | 0.00 | 92 | 1013.1 |
| 20260904075437 | 76 | 136 | 0.0 | 0.0 | 0.00 | 0.81 | 0.00 | 92 | 1013.0 |
| 20260904074951 | 76 | 136 | 0.0 | 0.0 | 0.00 | 0.81 | 0.00 | 92 | 1013.0 |
| 20260904073952 | 76 | 136 | 0.0 | 0.0 | 0.00 | 0.81 | 0.00 | 92 | 1013.0 |
| 20260904073005 | 76 | 136 | 0.0 | 0.0 | 0.00 | 0.81 | 0.00 | 92 | 1013.0 |
| 20260904072004 | 76 | 136 | 0.0 | 0.0 | 0.00 | 0.81 | 0.00 | 92 | 1013.0 |
| 20260904070949 | 77 | 136 | 0.0 | 0.0 | 0.00 | 1.67 | 0.00 | 91 | 1013.0 |
| 20260904065939 | 77 | 136 | 0.0 | 0.0 | 0.00 | 1.67 | 0.00 | 91 | 1013.1 |
| 20260904065455 | 77 | 136 | 0.0 | 0.0 | 0.00 | 1.67 | 0.00 | 91 | 1013.1 |
| 20260904064956 | 77 | 136 | 0.0 | 0.0 | 0.00 | 1.67 | 0.00 | 90 | 1013.2 |
| 20260904064436 | 77 | 136 | 0.0 | 0.0 | 0.00 | 1.67 | 0.00 | 90 | 1013.2 |
| 20260904063954 | 77 | 136 | 0.0 | 0.0 | 0.00 | 1.67 | 0.00 | 90 | 1013.2 |
| 20260904063440 | 77 | 136 | 0.0 | 0.0 | 0.00 | 1.67 | 0.00 | 90 | 1013.2 |
| 20260904062937 | 77 | 136 | 0.0 | 0.0 | 0.00 | 1.67 | 0.00 | 90 | 1013.1 |
| 20260904062454 | 77 | 136 | 0.0 | 0.0 | 0.00 | 1.67 | 0.00 | 89 | 1013.1 |
| 20260904061955 | 77 | 136 | 0.0 | 0.0 | 0.00 | 1.67 | 0.00 | 89 | 1013.1 |
| 20260904061455 | 77 | 136 | 0.0 | 0.0 | 0.00 | 1.88 | 0.00 | 89 | 1013.1 |
| 20260904060945 | 78 | 136 | 0.0 | 0.0 | 0.00 | 1.88 | 0.00 | 88 | 1013.1 |
| 20260904060430 | 78 | 136 | 0.0 | 0.0 | 0.00 | 1.88 | 0.00 | 88 | 1013.0 |
| 20260904055957 | 78 | 136 | 0.0 | 0.0 | 0.00 | 1.88 | 0.00 | 88 | 1013.0 |
| 20260904055428 | 78 | 136 | 0.0 | 0.0 | 0.00 | 1.88 | 0.00 | 88 | 1013.0 |
| 20260904054935 | 78 | 136 | 0.0 | 0.0 | 0.00 | 1.88 | 0.00 | 87 | 1012.9 |
| 20260904054439 | 78 | 136 | 0.0 | 0.0 | 0.00 | 1.88 | 0.00 | 87 | 1012.9 |
| 20260904053953 | 78 | 136 | 0.0 | 0.0 | 0.00 | 1.88 | 0.00 | 87 | 1012.9 |
| 20260904053456 | 78 | 136 | 0.0 | 0.0 | 0.00 | 1.88 | 0.00 | 86 | 1012.8 |
| 20260904052956 | 78 | 136 | 0.0 | 0.0 | 0.00 | 1.88 | 0.00 | 86 | 1012.8 |
| 20260904052447 | 78 | 136 | 0.0 | 0.0 | 0.00 | 1.88 | 0.00 | 86 | 1012.9 |
| 20260904051930 | 79 | 136 | 0.0 | 0.0 | 0.00 | 1.88 | 0.00 | 85 | 1012.9 |
| 20260904051449 | 79 | 136 | 0.0 | 0.0 | 0.00 | 1.89 | 1.88 | 85 | 1012.9 |
| 20260904050940 | 79 | 136 | 0.0 | 0.0 | 0.00 | 1.89 | 1.88 | 85 | 1012.9 |
| 20260904050457 | 79 | 136 | 0.0 | 0.0 | 0.00 | 1.89 | 1.88 | 85 | 1012.9 |
| 20260904050022 | 79 | 136 | 0.0 | 0.0 | 0.00 | 1.89 | 1.88 | 84 | 1013.0 |
| 20260904044955 | 79 | 136 | 0.0 | 0.0 | 0.00 | 1.89 | 1.88 | 83 | 1013.0 |
| 20260904044525 | 79 | 136 | 0.0 | 0.0 | 0.00 | 1.89 | 1.88 | 83 | 1013.0 |
| 20260904043953 | 79 | 136 | 0.0 | 0.0 | 0.00 | 1.89 | 1.88 | 83 | 1013.1 |
| 20260904042949 | 79 | 136 | 0.0 | 0.0 | 0.00 | 1.89 | 1.88 | 82 | 1013.1 |
| 20260904042430 | 80 | 136 | 0.0 | 0.0 | 0.00 | 1.89 | 1.88 | 82 | 1013.2 |
| 20260904041955 | 80 | 136 | 0.0 | 0.0 | 0.00 | 1.89 | 1.88 | 81 | 1013.2 |
| 20260904040954 | 80 | 136 | 0.0 | 0.0 | 0.00 | 1.96 | 1.88 | 81 | 1013.1 |
| 20260904035953 | 80 | 136 | 0.0 | 0.0 | 0.00 | 1.96 | 1.88 | 81 | 1013.1 |
| 20260904035526 | 80 | 136 | 0.0 | 0.0 | 0.00 | 1.96 | 1.88 | 81 | 1013.1 |
| 20260904034939 | 80 | 111 | 0.0 | 0.0 | 0.00 | 1.96 | 1.88 | 80 | 1013.1 |
| 20260904033944 | 80 | 111 | 0.0 | 0.0 | 0.00 | 1.96 | 1.88 | 80 | 1013.1 |
| 20260904032939 | 81 | 112 | 0.0 | 0.0 | 0.00 | 1.96 | 1.88 | 79 | 1013.1 |
| 20260904032529 | 81 | 111 | 0.0 | 0.0 | 0.00 | 1.96 | 1.88 | 79 | 1013.2 |
| 20260904031936 | 81 | 111 | 0.0 | 0.0 | 0.00 | 1.96 | 1.88 | 79 | 1013.2 |
| 20260904031514 | 81 | 111 | 0.0 | 1.0 | 0.00 | 2.27 | 1.88 | 79 | 1013.2 |
| 20260904030932 | 81 | 111 | 0.0 | 1.0 | 0.00 | 2.27 | 1.88 | 78 | 1013.2 |
| 20260904025954 | 81 | 130 | 0.0 | 0.0 | 0.00 | 2.27 | 1.88 | 78 | 1013.0 |
| 20260904025438 | 81 | 130 | 0.0 | 0.0 | 0.00 | 2.27 | 1.88 | 78 | 1013.0 |
| 20260904025007 | 82 | 89 | 0.0 | 0.0 | 0.00 | 2.27 | 1.88 | 78 | 1012.9 |
| 20260904024512 | 82 | 89 | 0.0 | 1.0 | 0.00 | 2.27 | 1.88 | 78 | 1012.9 |
| 20260904023455 | 82 | 89 | 0.0 | 0.0 | 0.00 | 2.27 | 1.88 | 78 | 1012.8 |
| 20260904023044 | 82 | 89 | 0.0 | 0.0 | 0.00 | 2.27 | 1.88 | 78 | 1012.7 |
| 20260904022432 | 82 | 89 | 0.0 | 0.0 | 0.00 | 2.27 | 1.88 | 78 | 1012.6 |
| 20260904021434 | 83 | 89 | 0.0 | 1.0 | 0.00 | 2.45 | 1.88 | 77 | 1012.5 |
| 20260904021015 | 83 | 89 | 0.0 | 0.0 | 0.00 | 2.45 | 1.88 | 76 | 1012.4 |
| 20260904015954 | 83 | 86 | 0.0 | 0.0 | 0.00 | 2.45 | 1.88 | 76 | 1012.4 |
| 20260904014957 | 84 | 86 | 0.0 | 0.0 | 0.00 | 2.45 | 1.88 | 75 | 1012.3 |
| 20260904013945 | 84 | 86 | 0.0 | 0.0 | 0.00 | 2.45 | 1.88 | 74 | 1012.1 |
| 20260904013521 | 84 | 86 | 0.0 | 0.0 | 0.00 | 2.45 | 1.88 | 73 | 1011.9 |
| 20260904013018 | 84 | 86 | 0.0 | 0.0 | 0.00 | 2.45 | 1.88 | 73 | 1011.9 |
| 20260904012531 | 84 | 86 | 0.0 | 0.0 | 0.00 | 2.45 | 1.88 | 72 | 1011.7 |
| 20260904011508 | 85 | 86 | 0.0 | 0.0 | 0.00 | 2.45 | 1.88 | 71 | 1011.7 |
| 20260904011032 | 85 | 86 | 0.0 | 0.0 | 0.00 | 2.45 | 1.88 | 70 | 1011.7 |
| 20260904010003 | 86 | 86 | 0.0 | 0.0 | 0.00 | 2.45 | 1.88 | 69 | 1011.5 |
| 20260904005516 | 86 | 86 | 0.0 | 0.0 | 0.00 | 2.45 | 1.88 | 68 | 1011.6 |
| 20260904004459 | 87 | 94 | 0.0 | 0.0 | 0.00 | 2.45 | 1.88 | 66 | 1011.5 |
| 20260904003432 | 88 | 94 | 0.0 | 0.0 | 0.00 | 2.45 | 1.88 | 65 | 1011.4 |
| 20260904002952 | 89 | 94 | 0.0 | 0.0 | 0.00 | 2.45 | 1.88 | 64 | 1011.3 |
| 20260904001947 | 90 | 93 | 0.0 | 1.0 | 0.00 | 2.45 | 1.88 | 62 | 1011.3 |
| 20260904001526 | 91 | 93 | 0.0 | 2.0 | 0.00 | 2.45 | 1.88 | 61 | 1011.3 |
| 20260904000954 | 91 | 91 | 1.0 | 2.0 | 0.00 | 2.45 | 1.88 | 60 | 1011.3 |
| 20260903235932 | 91 | 236 | 0.0 | 1.0 | 0.00 | 2.45 | 1.88 | 62 | 1011.3 |
| 20260903234951 | 90 | 270 | 0.0 | 2.0 | 0.00 | 2.45 | 1.88 | 62 | 1011.2 |
| 20260903233949 | 90 | 82 | 0.0 | 3.0 | 0.00 | 2.45 | 1.88 | 61 | 1011.3 |
| 20260903233001 | 90 | 264 | 0.0 | 1.0 | 0.00 | 2.45 | 1.88 | 61 | 1011.3 |
| 20260903231957 | 91 | 271 | 0.0 | 1.0 | 0.00 | 2.45 | 1.88 | 59 | 1011.2 |
| 20260903230955 | 92 | 322 | 0.0 | 2.0 | 0.00 | 2.45 | 1.88 | 58 | 1011.2 |
| 20260903225952 | 92 | 233 | 0.0 | 2.0 | 0.00 | 2.45 | 1.88 | 58 | 1011.3 |
| 20260903225504 | 93 | 245 | 0.0 | 2.0 | 0.00 | 2.45 | 1.88 | 57 | 1011.3 |
| 20260903225017 | 93 | 81 | 0.0 | 1.0 | 0.00 | 2.45 | 1.88 | 56 | 1011.4 |
| 20260903224513 | 93 | 288 | 0.0 | 2.0 | 0.00 | 2.45 | 1.88 | 56 | 1011.5 |
| 20260903223937 | 92 | 290 | 0.0 | 3.0 | 0.00 | 2.45 | 1.88 | 57 | 1011.4 |
| 20260903223511 | 93 | 300 | 0.0 | 3.0 | 0.00 | 2.45 | 1.88 | 55 | 1011.5 |
| 20260903222955 | 93 | 286 | 0.0 | 2.0 | 0.00 | 2.45 | 1.88 | 56 | 1011.5 |
| 20260903222525 | 93 | 103 | 1.0 | 2.0 | 0.00 | 2.45 | 1.88 | 57 | 1011.6 |
| 20260903221939 | 93 | 270 | 1.0 | 3.0 | 0.00 | 2.45 | 1.88 | 57 | 1011.6 |
| 20260903220954 | 93 | 188 | 0.0 | 3.0 | 0.00 | 2.45 | 1.88 | 57 | 1011.6 |
| 20260903220458 | 93 | 275 | 1.0 | 3.0 | 0.00 | 2.45 | 1.88 | 57 | 1011.6 |
| 20260903220026 | 93 | 267 | 1.0 | 3.0 | 0.00 | 2.45 | 1.88 | 55 | 1011.7 |
| 20260903215434 | 93 | 304 | 0.0 | 4.0 | 0.00 | 2.45 | 1.88 | 57 | 1011.7 |
| 20260903215022 | 93 | 240 | 2.0 | 4.0 | 0.00 | 2.45 | 1.88 | 55 | 1011.8 |
| 20260903214431 | 93 | 232 | 0.0 | 4.0 | 0.00 | 2.45 | 1.88 | 57 | 1011.8 |
| 20260903214003 | 94 | 276 | 2.0 | 4.0 | 0.00 | 2.45 | 1.88 | 55 | 1011.9 |
| 20260903212937 | 93 | 223 | 0.0 | 4.0 | 0.00 | 2.45 | 1.88 | 58 | 1011.9 |
| 20260903211945 | 92 | 275 | 1.0 | 4.0 | 0.00 | 2.45 | 1.88 | 58 | 1011.8 |
| 20260903211002 | 93 | 271 | 1.0 | 3.0 | 0.00 | 2.45 | 1.88 | 58 | 1011.8 |
| 20260903210436 | 93 | 270 | 1.0 | 4.0 | 0.00 | 2.45 | 1.88 | 57 | 1011.9 |
| 20260903210015 | 93 | 250 | 0.0 | 5.0 | 0.00 | 2.45 | 1.88 | 56 | 1012.0 |
| 20260903204953 | 94 | 276 | 1.0 | 2.0 | 0.00 | 2.45 | 1.88 | 54 | 1012.1 |
| 20260903204507 | 94 | 78 | 0.0 | 0.0 | 0.00 | 2.45 | 1.88 | 56 | 1012.2 |
| 20260903203941 | 93 | 233 | 0.0 | 3.0 | 0.00 | 2.45 | 1.88 | 57 | 1012.3 |
| 20260903202947 | 92 | 268 | 0.0 | 2.0 | 0.00 | 2.45 | 1.88 | 59 | 1012.3 |
| 20260903202518 | 92 | 257 | 0.0 | 5.0 | 0.00 | 2.45 | 1.88 | 59 | 1012.3 |
| 20260903201936 | 92 | 304 | 1.0 | 5.0 | 0.00 | 2.45 | 1.88 | 58 | 1012.4 |
| 20260903200941 | 92 | 282 | 0.0 | 1.0 | 0.00 | 2.45 | 1.88 | 59 | 1012.6 |
| 20260903200515 | 92 | 300 | 0.0 | 2.0 | 0.00 | 2.45 | 1.88 | 63 | 1012.7 |
| 20260903195931 | 90 | 38 | 0.0 | 2.0 | 0.00 | 2.45 | 1.88 | 64 | 1012.7 |
| 20260903195459 | 91 | 268 | 1.0 | 2.0 | 0.00 | 2.45 | 1.88 | 62 | 1012.8 |
| 20260903195026 | 91 | 269 | 1.0 | 4.0 | 0.00 | 2.45 | 1.88 | 60 | 1012.9 |
| 20260903194508 | 91 | 113 | 1.0 | 4.0 | 0.00 | 2.45 | 1.88 | 61 | 1013.0 |
| 20260903193451 | 90 | 78 | 0.0 | 4.0 | 0.00 | 2.45 | 1.88 | 63 | 1013.1 |
| 20260903193004 | 90 | 84 | 2.0 | 4.0 | 0.00 | 2.45 | 1.88 | 64 | 1013.2 |
| 20260903192513 | 90 | 103 | 1.0 | 4.0 | 0.00 | 2.45 | 1.88 | 66 | 1013.2 |
| 20260903190946 | 89 | 115 | 2.0 | 5.0 | 0.00 | 2.45 | 1.88 | 65 | 1013.4 |
| 20260903185947 | 91 | 99 | 0.0 | 5.0 | 0.00 | 2.45 | 1.88 | 65 | 1013.6 |
| 20260903184943 | 90 | 87 | 1.0 | 4.0 | 0.00 | 2.45 | 1.88 | 65 | 1013.7 |
| 20260903184545 | 89 | 229 | 0.0 | 4.0 | 0.00 | 2.45 | 1.88 | 66 | 1013.9 |
| 20260903183931 | 89 | 96 | 1.0 | 4.0 | 0.00 | 2.45 | 1.88 | 66 | 1013.9 |
| 20260903183502 | 90 | 105 | 1.0 | 4.0 | 0.00 | 2.45 | 1.88 | 64 | 1014.0 |
| 20260903182450 | 90 | 269 | 1.0 | 2.0 | 0.00 | 2.45 | 1.88 | 65 | 1014.3 |
| 20260903182003 | 90 | 154 | 1.0 | 3.0 | 0.00 | 2.45 | 1.88 | 66 | 1014.3 |
| 20260903181517 | 89 | 47 | 0.0 | 3.0 | 0.00 | 2.45 | 1.88 | 69 | 1014.4 |
| 20260903180500 | 89 | 171 | 0.0 | 3.0 | 0.00 | 2.45 | 1.88 | 68 | 1014.6 |
| 20260903175452 | 89 | 287 | 0.0 | 3.0 | 0.00 | 2.45 | 1.88 | 68 | 1014.7 |
| 20260903174521 | 89 | 63 | 1.0 | 8.0 | 0.00 | 2.45 | 1.88 | 66 | 1014.9 |
| 20260903173937 | 89 | 118 | 1.0 | 3.0 | 0.00 | 2.45 | 1.88 | 68 | 1015.0 |
| 20260903172957 | 89 | 73 | 2.0 | 4.0 | 0.00 | 2.45 | 1.88 | 68 | 1015.0 |
| 20260903172503 | 88 | 74 | 1.0 | 3.0 | 0.00 | 2.45 | 1.88 | 68 | 1015.1 |
| 20260903171448 | 88 | 103 | 1.0 | 5.0 | 0.00 | 2.45 | 1.88 | 70 | 1015.1 |
| 20260903170442 | 88 | 78 | 1.0 | 6.0 | 0.00 | 2.45 | 1.88 | 68 | 1015.1 |
| 20260903170023 | 88 | 88 | 0.0 | 5.0 | 0.00 | 2.45 | 1.88 | 72 | 1015.1 |
| 20260903165437 | 87 | 85 | 0.0 | 5.0 | 0.00 | 2.45 | 1.88 | 70 | 1015.1 |
| 20260903165013 | 88 | 126 | 1.0 | 3.0 | 0.00 | 2.45 | 1.88 | 68 | 1015.2 |
| 20260903164439 | 88 | 317 | 0.0 | 2.0 | 0.00 | 2.45 | 1.88 | 72 | 1015.1 |
| 20260903164004 | 88 | 190 | 0.0 | 2.0 | 0.00 | 2.45 | 1.88 | 71 | 1015.2 |
| 20260903162953 | 87 | 132 | 0.0 | 2.0 | 0.00 | 2.45 | 1.88 | 73 | 1015.1 |
| 20260903162509 | 86 | 343 | 0.0 | 3.0 | 0.00 | 2.45 | 1.88 | 73 | 1015.0 |
| 20260903161454 | 86 | 172 | 1.0 | 3.0 | 0.00 | 2.45 | 1.88 | 73 | 1015.1 |
| 20260903160444 | 85 | 251 | 1.0 | 3.0 | 0.00 | 2.45 | 1.88 | 76 | 1015.2 |
| 20260903155454 | 84 | 297 | 0.0 | 2.0 | 0.00 | 2.45 | 1.88 | 79 | 1015.1 |
| 20260903154500 | 83 | 90 | 0.0 | 3.0 | 0.00 | 2.45 | 1.88 | 81 | 1015.0 |
| 20260903153437 | 83 | 146 | 1.0 | 5.0 | 0.00 | 2.45 | 1.88 | 81 | 1014.9 |
| 20260903153008 | 83 | 108 | 0.0 | 2.0 | 0.00 | 2.45 | 1.88 | 83 | 1014.8 |
| 20260903151951 | 81 | 188 | 0.0 | 1.0 | 0.00 | 2.45 | 1.88 | 88 | 1014.8 |
| 20260903150948 | 80 | 83 | 0.0 | 4.0 | 0.00 | 2.45 | 1.88 | 91 | 1014.7 |
| 20260903145933 | 78 | 329 | 0.0 | 1.0 | 0.00 | 2.45 | 1.88 | 93 | 1014.6 |
| 20260903145458 | 78 | 331 | 0.0 | 1.0 | 0.00 | 2.45 | 1.88 | 93 | 1014.6 |
| 20260903144500 | 77 | 109 | 0.0 | 1.0 | 0.00 | 2.45 | 1.88 | 95 | 1014.6 |